EW9957 Weather Reports


Display with metric or nautical units.
time (UTC)temp
F
wind
direction
speed
MPH
gust
MPH
rain 1hr
in
rain 24hr
in
rain mn
in
humidity
%
barometer
mb
20260509205051 70 36 8.0 15.0 0.00 0.00 0.00 67 1014.1
20260509204555 70 36 9.0 15.0 0.00 0.00 0.00 68 1014.1
20260509204108 70 36 9.0 14.0 0.00 0.00 0.00 67 1014.2
20260509203542 70 34 10.0 14.0 0.00 0.00 0.00 66 1014.2
20260509203107 71 35 9.0 14.0 0.00 0.00 0.00 65 1014.2
20260509203024 71 35 9.0 14.0 0.00 0.00 0.00 65 1014.2
20260509202540 73 35 9.0 15.0 0.00 0.00 0.00 65 1014.2
20260509202014 72 35 10.0 15.0 0.00 0.00 0.00 66 1014.2
20260509201517 72 37 8.0 14.0 0.00 0.00 0.00 66 1014.2
20260509201113 71 35 8.0 13.0 0.00 0.00 0.00 65 1014.2
20260509201030 71 35 8.0 13.0 0.00 0.00 0.00 65 1014.2
20260509200526 72 36 7.0 14.0 0.00 0.00 0.00 64 1014.2
20260509200028 72 36 8.0 14.0 0.00 0.00 0.00 65 1014.2
20260509195543 72 35 8.0 14.0 0.00 0.00 0.00 64 1014.2
20260509195057 73 34 6.0 13.0 0.00 0.00 0.00 66 1014.2
20260509194609 72 32 8.0 13.0 0.00 0.00 0.00 66 1014.2
20260509194526 72 32 8.0 13.0 0.00 0.00 0.00 66 1014.2
20260509194043 73 34 9.0 16.0 0.00 0.00 0.00 65 1014.2
20260509193517 73 36 9.0 14.0 0.00 0.00 0.00 65 1014.2
20260509193020 73 35 8.0 12.0 0.00 0.00 0.00 66 1014.2
20260509192555 73 36 7.0 14.0 0.00 0.00 0.00 67 1014.2
20260509192048 72 36 8.0 14.0 0.00 0.00 0.00 65 1014.2
20260509191527 73 36 8.0 13.0 0.00 0.00 0.00 66 1014.2
20260509191044 73 36 7.0 12.0 0.00 0.00 0.00 65 1014.2
20260509190539 74 34 7.0 12.0 0.00 0.00 0.00 64 1014.3
20260509190041 73 34 6.0 9.0 0.00 0.00 0.00 63 1014.2
20260509185556 75 36 5.0 10.0 0.00 0.00 0.00 64 1014.3
20260509185514 75 36 5.0 10.0 0.00 0.00 0.00 64 1014.3
20260509185029 74 36 5.0 10.0 0.00 0.00 0.00 64 1014.3
20260509184550 74 34 5.0 10.0 0.00 0.00 0.00 63 1014.3
20260509184025 75 34 5.0 9.0 0.00 0.00 0.00 63 1014.4
20260509183600 74 34 5.0 10.0 0.00 0.00 0.00 63 1014.3
20260509183040 74 36 4.0 10.0 0.00 0.00 0.00 63 1014.3
20260509182555 74 35 1.0 5.0 0.00 0.00 0.00 63 1014.3
20260509182512 74 35 1.0 5.0 0.00 0.00 0.00 63 1014.3
20260509182047 75 34 3.0 7.0 0.00 0.00 0.00 66 1014.3
20260509181613 72 35 1.0 5.0 0.00 0.00 0.00 66 1014.4
20260509181530 72 35 1.0 5.0 0.00 0.00 0.00 66 1014.4
20260509181027 71 36 2.0 6.0 0.00 0.00 0.00 67 1014.5
20260509180543 71 34 4.0 6.0 0.00 0.00 0.00 68 1014.5
20260509180107 71 36 4.0 6.0 0.00 0.00 0.00 67 1014.5
20260509180024 71 36 4.0 6.0 0.00 0.00 0.00 67 1014.5
20260509175520 72 35 2.0 6.0 0.00 0.00 0.00 67 1014.6
20260509175015 71 34 3.0 6.0 0.00 0.00 0.00 66 1014.7
20260509174609 70 36 1.0 5.0 0.00 0.00 0.00 68 1014.8
20260509174102 70 34 3.0 5.0 0.00 0.00 0.00 68 1014.9
20260509174020 70 34 3.0 5.0 0.00 0.00 0.00 68 1014.9
20260509173535 70 35 3.0 5.0 0.00 0.00 0.00 69 1014.8
20260509173017 69 32 2.0 5.0 0.00 0.00 0.00 72 1014.8
20260509172612 68 36 3.0 5.0 0.00 0.00 0.00 72 1014.9
20260509172530 68 36 3.0 5.0 0.00 0.00 0.00 72 1014.9
20260509172101 69 36 2.0 5.0 0.00 0.00 0.00 72 1014.9
20260509171613 68 35 2.0 5.0 0.00 0.00 0.00 73 1014.8
20260509171107 67 32 3.0 5.0 0.00 0.00 0.00 73 1014.9
20260509171024 67 32 3.0 5.0 0.00 0.00 0.00 73 1014.9
20260509170558 67 35 3.0 5.0 0.00 0.00 0.00 76 1014.8
20260509170516 67 35 3.0 5.0 0.00 0.00 0.00 76 1014.8
20260509170110 67 37 3.0 5.0 0.00 0.00 0.00 76 1014.8
20260509165603 66 36 3.0 5.0 0.00 0.00 0.00 75 1014.8
20260509165521 66 36 3.0 5.0 0.00 0.00 0.00 75 1014.8
20260509165016 66 34 2.0 6.0 0.00 0.00 0.00 78 1014.8
20260509164610 65 38 2.0 6.0 0.00 0.00 0.00 78 1014.8
20260509164042 64 35 3.0 6.0 0.00 0.00 0.00 78 1014.8
20260509163556 65 35 1.0 5.0 0.00 0.00 0.00 79 1014.9
20260509163037 64 36 2.0 5.0 0.00 0.00 0.00 79 1015.0
20260509162611 64 36 3.0 4.0 0.00 0.00 0.00 80 1015.0
20260509162101 64 37 3.0 7.0 0.00 0.00 0.00 81 1015.0
20260509162018 64 37 3.0 7.0 0.00 0.00 0.00 81 1015.0
20260509161525 64 34 2.0 7.0 0.00 0.00 0.00 81 1015.1
20260509161056 63 35 2.0 8.0 0.00 0.00 0.00 81 1015.0
20260509160534 63 35 3.0 8.0 0.00 0.00 0.00 81 1015.1
20260509160036 64 35 2.0 5.0 0.00 0.00 0.00 80 1015.1
20260509155532 63 36 1.0 3.0 0.00 0.00 0.00 83 1015.1
20260509155047 62 32 2.0 3.0 0.00 0.00 0.00 84 1015.1
20260509154612 62 35 1.0 3.0 0.00 0.00 0.00 84 1015.1
20260509154530 62 35 1.0 3.0 0.00 0.00 0.00 84 1015.1
20260509154045 62 35 1.0 5.0 0.00 0.00 0.00 84 1015.1
20260509153541 61 35 0.0 5.0 0.00 0.00 0.00 87 1015.1
20260509153023 61 36 2.0 7.0 0.00 0.00 0.00 86 1015.1
20260509152539 61 35 1.0 7.0 0.00 0.00 0.00 87 1015.1
20260509152053 61 38 1.0 6.0 0.00 0.00 0.00 87 1015.0
20260509151555 61 32 1.0 6.0 0.00 0.00 0.00 87 1015.1
20260509151050 61 34 2.0 5.0 0.00 0.00 0.00 87 1015.1
20260509150605 61 35 2.0 4.0 0.00 0.00 0.00 87 1015.1
20260509150020 61 34 1.0 3.0 0.00 0.00 0.00 87 1015.1
20260509145536 61 38 1.0 3.0 0.00 0.00 0.00 87 1015.2
20260509145036 61 35 1.0 3.0 0.00 0.00 0.00 88 1015.2
20260509144516 61 35 1.0 4.0 0.00 0.00 0.00 88 1015.1
20260509144108 60 34 1.0 4.0 0.00 0.00 0.00 89 1015.0
20260509143546 60 36 1.0 3.0 0.00 0.00 0.00 89 1014.9
20260509143028 60 38 1.0 2.0 0.00 0.00 0.00 89 1014.9
20260509142559 60 35 1.0 4.0 0.00 0.00 0.00 89 1015.0
20260509142516 60 35 1.0 4.0 0.00 0.00 0.00 89 1015.0
20260509142113 60 36 2.0 4.0 0.00 0.00 0.00 89 1015.0
20260509141552 60 36 1.0 3.0 0.00 0.00 0.00 89 1014.9
20260509141027 60 37 1.0 2.0 0.00 0.00 0.00 90 1014.9
20260509140543 60 35 0.0 4.0 0.00 0.00 0.00 90 1014.8
20260509140043 60 34 1.0 4.0 0.00 0.00 0.00 90 1014.9
20260509135517 60 35 1.0 4.0 0.00 0.00 0.00 90 1014.8
20260509135113 60 36 0.0 2.0 0.00 0.00 0.00 91 1014.8
20260509135030 60 36 0.0 2.0 0.00 0.00 0.00 91 1014.8
20260509134553 60 36 1.0 2.0 0.00 0.00 0.00 91 1014.8
20260509134107 60 36 1.0 3.0 0.00 0.00 0.00 91 1014.8
20260509133601 60 36 0.0 3.0 0.00 0.00 0.00 91 1014.8
20260509133518 60 36 0.0 3.0 0.00 0.00 0.00 91 1014.8
20260509133112 60 36 1.0 3.0 0.00 0.00 0.00 91 1014.7
20260509132546 60 37 1.0 3.0 0.00 0.00 0.00 91 1014.7
20260509132101 60 37 0.0 2.0 0.00 0.00 0.00 91 1014.7
20260509131605 60 36 0.0 2.0 0.00 0.00 0.00 91 1014.7
20260509131523 60 36 0.0 2.0 0.00 0.00 0.00 91 1014.7
20260509131038 60 35 1.0 4.0 0.00 0.00 0.00 91 1014.7
20260509130554 60 35 1.0 4.0 0.00 0.00 0.00 91 1014.7
20260509130016 60 35 1.0 4.0 0.00 0.00 0.00 91 1014.6
20260509125553 60 34 1.0 2.0 0.00 0.00 0.00 91 1014.5
20260509125049 60 36 1.0 3.0 0.00 0.00 0.00 91 1014.6
20260509124551 60 36 1.0 4.0 0.00 0.00 0.00 91 1014.6
20260509124045 60 36 2.0 3.0 0.00 0.00 0.00 91 1014.5
20260509123519 60 37 1.0 3.0 0.00 0.00 0.00 91 1014.5
20260509123113 60 32 1.0 2.0 0.00 0.00 0.00 91 1014.5
20260509123030 60 32 1.0 2.0 0.00 0.00 0.00 91 1014.5
20260509122526 60 36 1.0 3.0 0.00 0.00 0.00 91 1014.4
20260509122020 60 35 2.0 3.0 0.00 0.00 0.00 91 1014.4
20260509121544 60 38 1.0 3.0 0.00 0.00 0.00 91 1014.4
20260509121040 60 35 0.0 2.0 0.00 0.00 0.00 91 1014.4
20260509120536 60 36 0.0 2.0 0.00 0.00 0.00 91 1014.4
20260509120038 60 36 1.0 2.0 0.00 0.00 0.00 91 1014.5
20260509115552 60 38 0.0 2.0 0.00 0.00 0.00 91 1014.5
20260509115107 60 37 1.0 3.0 0.00 0.00 0.00 91 1014.5
20260509115024 60 37 1.0 3.0 0.00 0.00 0.00 91 1014.5
20260509114526 59 34 1.0 4.0 0.00 0.00 0.00 91 1014.5
20260509114041 60 34 2.0 4.0 0.00 0.00 0.00 91 1014.6
20260509113537 60 35 2.0 5.0 0.00 0.00 0.00 91 1014.5
20260509113041 59 35 3.0 5.0 0.00 0.00 0.00 91 1014.5
20260509112515 60 38 2.0 5.0 0.00 0.00 0.00 91 1014.5
20260509112030 60 38 3.0 4.0 0.00 0.00 0.00 91 1014.5
20260509111530 60 38 3.0 4.0 0.00 0.00 0.00 91 1014.4
20260509111047 60 35 2.0 5.0 0.00 0.00 0.00 91 1014.4
20260509110523 60 35 2.0 3.0 0.00 0.00 0.00 91 1014.4
20260509110107 60 36 2.0 3.0 0.00 0.00 0.00 91 1014.4
20260509110025 60 36 2.0 3.0 0.00 0.00 0.00 91 1014.4
20260509105600 60 34 1.0 3.0 0.00 0.00 0.00 91 1014.5
20260509105518 60 34 1.0 3.0 0.00 0.00 0.00 91 1014.5
20260509105033 60 36 0.0 0.0 0.00 0.00 0.00 91 1014.5
20260509104537 60 35 0.0 0.0 0.00 0.00 0.00 91 1014.5
20260509104052 60 36 0.0 2.0 0.00 0.00 0.00 91 1014.6
20260509103547 60 35 1.0 2.0 0.00 0.00 0.00 91 1014.6
20260509103025 60 36 0.0 2.0 0.00 0.00 0.00 91 1014.7
20260509102601 60 34 0.0 0.0 0.00 0.00 0.00 91 1014.7
20260509102055 60 35 0.0 3.0 0.00 0.00 0.00 91 1014.7
20260509101558 60 35 1.0 3.0 0.00 0.00 0.00 91 1014.8
20260509101515 60 35 1.0 3.0 0.00 0.00 0.00 91 1014.8
20260509101052 60 36 0.0 2.0 0.00 0.00 0.00 91 1014.7
20260509100526 60 38 0.0 2.0 0.00 0.00 0.00 91 1014.7
20260509100048 60 36 1.0 4.0 0.00 0.00 0.00 91 1014.7
20260509095603 60 36 3.0 4.0 0.00 0.00 0.00 91 1014.7
20260509095520 60 36 3.0 4.0 0.00 0.00 0.00 91 1014.7
20260509095116 60 36 2.0 4.0 0.00 0.00 0.00 90 1014.7
20260509095033 60 36 2.0 4.0 0.00 0.00 0.00 90 1014.7
20260509094517 60 36 1.0 4.0 0.00 0.00 0.00 91 1014.8
20260509094052 60 35 2.0 4.0 0.00 0.00 0.00 91 1014.8
20260509093606 60 36 2.0 3.0 0.00 0.00 0.00 91 1014.7
20260509093110 60 34 2.0 3.0 0.00 0.00 0.00 91 1014.8
20260509093027 60 34 2.0 3.0 0.00 0.00 0.00 91 1014.8
20260509092523 60 38 1.0 2.0 0.00 0.00 0.00 91 1014.9
20260509092018 60 35 1.0 2.0 0.00 0.00 0.00 91 1014.9
20260509091612 60 37 1.0 2.0 0.00 0.00 0.00 90 1014.9
20260509091105 60 36 0.0 2.0 0.00 0.00 0.00 90 1015.0
20260509091023 60 36 0.0 2.0 0.00 0.00 0.00 90 1015.0
20260509090518 60 32 0.0 0.0 0.00 0.00 0.00 91 1015.0
20260509085516 60 34 0.0 0.0 0.00 0.00 0.00 90 1015.1
20260509085113 60 38 0.0 2.0 0.00 0.00 0.00 90 1015.1
20260509084531 60 35 0.0 2.0 0.00 0.00 0.00 91 1015.2
20260509084046 60 35 0.0 2.0 0.00 0.00 0.00 90 1015.2
20260509083600 60 35 0.0 0.0 0.00 0.00 0.00 90 1015.2
20260509083058 60 35 0.0 0.0 0.00 0.00 0.00 91 1015.3
20260509082515 60 34 0.0 2.0 0.00 0.00 0.00 90 1015.3
20260509082052 60 37 0.0 2.0 0.00 0.00 0.00 90 1015.3
20260509081554 60 38 1.0 3.0 0.00 0.00 0.00 90 1015.4
20260509081105 60 36 1.0 3.0 0.00 0.00 0.00 90 1015.4
20260509080522 60 34 2.0 3.0 0.00 0.00 0.00 90 1015.5
20260509075557 60 35 1.0 3.0 0.00 0.00 0.00 90 1015.5
20260509075051 60 37 2.0 5.0 0.00 0.00 0.00 89 1015.5
20260509074554 60 35 2.0 4.0 0.00 0.00 0.00 89 1015.6
20260509074109 60 34 3.0 6.0 0.00 0.00 0.00 89 1015.6
20260509073523 60 34 3.0 6.0 0.00 0.00 0.00 89 1015.6
20260509073025 61 36 2.0 4.0 0.00 0.00 0.00 89 1015.6
20260509072520 60 37 2.0 4.0 0.00 0.00 0.00 89 1015.6
20260509072019 61 37 2.0 4.0 0.00 0.00 0.00 89 1015.6
20260509071523 61 36 1.0 4.0 0.00 0.00 0.00 89 1015.7
20260509071018 61 35 0.0 2.0 0.00 0.00 0.00 89 1015.7
20260509070514 60 34 1.0 4.0 0.00 0.00 0.00 89 1015.8
20260509070017 61 37 2.0 4.0 0.00 0.00 0.00 88 1015.9
20260509065612 61 35 2.0 3.0 0.00 0.00 0.00 88 1015.9
20260509065530 61 35 2.0 3.0 0.00 0.00 0.00 88 1015.9
20260509065045 61 35 2.0 3.0 0.00 0.00 0.00 88 1015.9
20260509064607 61 37 2.0 3.0 0.00 0.00 0.00 88 1015.9
20260509064022 61 35 1.0 3.0 0.00 0.00 0.00 88 1015.9
20260509063517 61 38 2.0 5.0 0.00 0.00 0.00 88 1015.9
20260509063111 61 35 2.0 5.0 0.00 0.00 0.00 88 1015.9
20260509062545 61 35 2.0 3.0 0.00 0.00 0.00 88 1015.9
20260509062041 61 37 1.0 3.0 0.00 0.00 0.00 88 1015.9
20260509061605 61 37 2.0 3.0 0.00 0.00 0.00 88 1015.9
20260509061039 61 38 1.0 3.0 0.00 0.00 0.00 87 1016.0
20260509060615 61 35 1.0 2.0 0.00 0.00 0.00 88 1016.0
20260509060533 61 35 1.0 2.0 0.00 0.00 0.00 88 1016.0
20260509060015 61 36 1.0 4.0 0.00 0.00 0.00 88 1015.9
20260509055551 61 35 1.0 3.0 0.00 0.00 0.00 87 1015.9
20260509055046 61 36 1.0 3.0 0.00 0.00 0.00 87 1016.0
20260509054609 61 38 0.0 3.0 0.00 0.00 0.00 87 1015.9
20260509054022 61 35 1.0 3.0 0.00 0.00 0.00 87 1016.0
20260509053517 61 35 1.0 2.0 0.00 0.00 0.00 87 1016.1
20260509053041 61 36 0.0 4.0 0.00 0.00 0.00 87 1016.1
20260509052515 61 36 1.0 4.0 0.00 0.00 0.00 87 1016.1
20260509052052 61 37 2.0 3.0 0.00 0.00 0.00 87 1016.1
20260509051556 61 36 1.0 3.0 0.00 0.00 0.00 87 1016.2
20260509051513 61 36 1.0 3.0 0.00 0.00 0.00 87 1016.2
20260509051029 61 38 2.0 4.0 0.00 0.00 0.00 87 1016.2
20260509050544 61 37 2.0 4.0 0.00 0.00 0.00 86 1016.2
20260509050046 61 35 2.0 4.0 0.00 0.00 0.00 86 1016.1
20260509045521 61 34 2.0 4.0 0.00 0.00 0.00 87 1016.1
20260509045039 61 35 1.0 3.0 0.00 0.00 0.00 86 1016.1
20260509044612 61 37 0.0 2.0 0.00 0.00 0.00 86 1016.1
20260509044530 61 37 0.0 2.0 0.00 0.00 0.00 86 1016.1
20260509044106 61 35 1.0 3.0 0.00 0.00 0.00 87 1016.0
20260509044024 61 35 1.0 3.0 0.00 0.00 0.00 87 1016.0
20260509043541 61 35 2.0 3.0 0.00 0.00 0.00 87 1016.0
20260509043113 61 35 1.0 3.0 0.00 0.00 0.00 87 1016.0
20260509042546 61 35 2.0 3.0 0.00 0.00 0.00 86 1016.0
20260509042020 61 36 2.0 3.0 0.00 0.00 0.00 86 1016.0
20260509041543 61 35 1.0 3.0 0.00 0.00 0.00 86 1015.9
20260509041039 61 36 2.0 3.0 0.00 0.00 0.00 86 1015.8
20260509040533 62 35 1.0 4.0 0.00 0.00 0.00 85 1015.8
20260509040015 62 35 2.0 4.0 0.00 0.00 0.00 85 1015.8
20260509035552 62 38 2.0 3.0 0.00 0.00 0.00 86 1015.8
20260509035106 62 38 2.0 4.0 0.00 0.00 0.00 85 1015.8
20260509035023 62 38 2.0 4.0 0.00 0.00 0.00 85 1015.8
20260509034609 62 35 2.0 4.0 0.00 0.00 0.00 84 1015.7
20260509034022 62 36 1.0 3.0 0.00 0.00 0.00 84 1015.6
20260509033557 62 35 1.0 4.0 0.00 0.00 0.00 86 1015.6
20260509033057 62 38 3.0 5.0 0.00 0.00 0.00 85 1015.5
20260509033015 62 38 3.0 5.0 0.00 0.00 0.00 85 1015.5
20260509032606 62 35 2.0 5.0 0.00 0.00 0.00 85 1015.5
20260509032523 62 35 2.0 5.0 0.00 0.00 0.00 85 1015.5
20260509032059 62 36 3.0 6.0 0.00 0.00 0.00 85 1015.5
20260509032016 62 36 3.0 6.0 0.00 0.00 0.00 85 1015.5
20260509031601 62 36 3.0 6.0 0.00 0.00 0.00 85 1015.5
20260509031036 62 38 3.0 5.0 0.00 0.00 0.00 85 1015.5
20260509030531 62 35 3.0 5.0 0.00 0.00 0.00 86 1015.5
20260509030014 62 36 4.0 8.0 0.00 0.00 0.00 85 1015.5
20260509025610 62 34 4.0 8.0 0.00 0.00 0.00 85 1015.4
20260509025527 62 34 4.0 8.0 0.00 0.00 0.00 85 1015.4
20260509025023 62 34 5.0 8.0 0.00 0.00 0.00 84 1015.4
20260509024607 62 35 4.0 8.0 0.00 0.00 0.00 84 1015.2
20260509024101 62 38 4.0 8.0 0.00 0.00 0.00 85 1015.2
20260509023613 62 36 5.0 9.0 0.00 0.00 0.00 84 1015.2
20260509023052 63 32 6.0 10.0 0.00 0.00 0.00 83 1015.2
20260509022606 63 34 5.0 10.0 0.00 0.00 0.00 82 1015.2
20260509022020 63 38 5.0 8.0 0.00 0.00 0.00 82 1015.1
20260509021615 64 34 5.0 8.0 0.00 0.00 0.00 81 1015.0
20260509021532 64 34 5.0 8.0 0.00 0.00 0.00 81 1015.0
20260509021047 64 35 6.0 8.0 0.00 0.00 0.00 81 1014.9
20260509020543 64 32 6.0 9.0 0.00 0.00 0.00 80 1014.9
20260509020044 64 35 6.0 10.0 0.00 0.00 0.00 79 1014.9
20260509015540 65 35 5.0 9.0 0.00 0.00 0.00 79 1014.8
20260509015114 65 35 6.0 9.0 0.00 0.00 0.00 77 1014.8
20260509015032 65 35 6.0 9.0 0.00 0.00 0.00 77 1014.8
20260509014537 66 35 6.0 10.0 0.00 0.00 0.00 76 1014.8
20260509014032 67 35 5.0 10.0 0.00 0.00 0.00 75 1014.8
20260509013547 67 35 4.0 11.0 0.00 0.00 0.00 74 1014.8
20260509013048 67 35 5.0 10.0 0.00 0.00 0.00 74 1014.8
20260509012522 68 34 5.0 9.0 0.00 0.00 0.00 73 1014.8
20260509012058 68 35 5.0 8.0 0.00 0.00 0.00 73 1014.7
20260509011610 68 36 5.0 9.0 0.00 0.00 0.00 73 1014.7
20260509011528 68 36 5.0 9.0 0.00 0.00 0.00 73 1014.7
20260509011023 68 35 5.0 9.0 0.00 0.00 0.00 73 1014.8
20260509010558 69 37 4.0 9.0 0.00 0.00 0.00 73 1014.8
20260509010516 69 37 4.0 9.0 0.00 0.00 0.00 73 1014.8
20260509010038 67 35 6.0 10.0 0.00 0.00 0.00 74 1014.8
20260509005552 68 36 6.0 10.0 0.00 0.00 0.00 74 1014.7
20260509005102 68 34 5.0 10.0 0.00 0.00 0.00 74 1014.8
20260509005020 68 34 5.0 10.0 0.00 0.00 0.00 74 1014.8
20260509004604 68 34 5.0 10.0 0.00 0.00 0.00 72 1014.7
20260509004521 68 34 5.0 10.0 0.00 0.00 0.00 72 1014.7
20260509004017 68 34 6.0 10.0 0.00 0.00 0.00 71 1014.8
20260509003517 69 34 5.0 9.0 0.00 0.00 0.00 71 1014.7
20260509003059 69 36 3.0 9.0 0.00 0.00 0.00 70 1014.7
20260509003016 69 36 3.0 9.0 0.00 0.00 0.00 70 1014.7
20260509002551 69 34 4.0 10.0 0.00 0.00 0.00 70 1014.6
20260509002045 68 34 6.0 10.0 0.00 0.00 0.00 70 1014.7
20260509001525 69 32 4.0 9.0 0.00 0.00 0.00 70 1014.8
20260509001022 68 35 4.0 9.0 0.00 0.00 0.00 72 1014.8
20260509000537 69 34 5.0 12.0 0.00 0.00 0.00 71 1014.8
20260509000018 69 36 5.0 12.0 0.00 0.00 0.00 70 1015.0
20260508235613 69 36 7.0 12.0 0.00 0.00 0.00 70 1015.0
20260508235049 69 38 6.0 10.0 0.00 0.00 0.00 71 1014.9
20260508234529 69 38 6.0 11.0 0.00 0.00 0.00 72 1015.0
20260508234044 68 35 7.0 11.0 0.00 0.00 0.00 72 1015.1
20260508233523 68 36 6.0 11.0 0.00 0.00 0.00 71 1015.1
20260508233113 69 38 7.0 12.0 0.00 0.00 0.00 71 1015.1
20260508232606 69 36 8.0 12.0 0.00 0.00 0.00 71 1015.2
20260508232524 69 36 8.0 12.0 0.00 0.00 0.00 71 1015.2
20260508232059 68 36 7.0 14.0 0.00 0.00 0.00 71 1015.2
20260508231611 68 38 8.0 14.0 0.00 0.00 0.00 71 1015.2
20260508231529 68 38 8.0 14.0 0.00 0.00 0.00 71 1015.2
20260508231024 68 34 8.0 16.0 0.00 0.00 0.00 71 1015.2
20260508230540 69 34 8.0 16.0 0.00 0.00 0.00 72 1015.2
20260508230043 68 35 7.0 13.0 0.00 0.00 0.00 69 1015.3
20260508225517 69 35 8.0 16.0 0.00 0.00 0.00 70 1015.3
20260508225013 69 35 9.0 16.0 0.00 0.00 0.00 72 1015.2
20260508224516 68 35 9.0 13.0 0.00 0.00 0.00 71 1015.4
20260508224017 69 31 8.0 11.0 0.00 0.00 0.00 70 1015.4
20260508223609 69 34 7.0 15.0 0.00 0.00 0.00 72 1015.4
20260508223526 69 34 7.0 15.0 0.00 0.00 0.00 72 1015.4
20260508223048 69 34 9.0 15.0 0.00 0.00 0.00 71 1015.4
20260508222603 69 35 9.0 15.0 0.00 0.00 0.00 70 1015.4
20260508222015 69 34 10.0 14.0 0.00 0.00 0.00 68 1015.5
20260508221519 69 35 8.0 14.0 0.00 0.00 0.00 68 1015.5
20260508221055 69 38 8.0 14.0 0.00 0.00 0.00 70 1015.5
20260508221012 69 38 8.0 14.0 0.00 0.00 0.00 70 1015.5
20260508220527 69 34 10.0 15.0 0.00 0.00 0.00 70 1015.6
20260508220049 69 36 10.0 16.0 0.00 0.00 0.00 69 1015.6
20260508215545 71 35 9.0 16.0 0.00 0.00 0.00 69 1015.6
20260508215041 70 34 11.0 18.0 0.00 0.00 0.00 68 1015.6
20260508214606 70 35 10.0 18.0 0.00 0.00 0.00 68 1015.7
20260508214524 70 35 10.0 18.0 0.00 0.00 0.00 68 1015.7
20260508214042 70 35 10.0 17.0 0.00 0.00 0.00 69 1015.7
20260508213557 70 37 10.0 15.0 0.00 0.00 0.00 68 1015.7
20260508213017 71 35 9.0 14.0 0.00 0.00 0.00 67 1015.7
20260508212612 72 32 7.0 13.0 0.00 0.00 0.00 68 1015.7
20260508212026 71 35 8.0 15.0 0.00 0.00 0.00 68 1015.8
20260508211527 71 38 8.0 15.0 0.00 0.00 0.00 67 1015.7
20260508211043 71 38 7.0 14.0 0.00 0.00 0.00 65 1015.6
20260508210558 71 35 9.0 13.0 0.00 0.00 0.00 66 1015.7
20260508210039 72 35 8.0 14.0 0.00 0.00 0.00 66 1015.7
20260508205534 72 35 8.0 14.0 0.00 0.00 0.00 66 1015.7